Weather in Turgenevka

Russia / Omsk Oblast     55°04′29″N   74°38′28″E
temp.,
°C
wind,
m/s
gust,
m/s
humid.,
%
clouds,
%
prec.,
mm/h
press.,
hPa
HPBL,
m
12 may, wed
wed1200:00+12nnw33430 0.0 102328
03:00+11wnw22470 0.0 102212
06:00+10wnw3354100 0.0 102253
09:00+17nw35365 0.0 1021372
12:00+22wnw5726100 0.0 10192434
15:00+22wnw7926100 0.0 10181984
18:00+18nnw71049100 0.4 10191057
21:00+15nnw71246100 0.0 1019664
13 may, thu
thu1300:00+12n5115493 0.0 1021395
03:00+10n4756100 0.0 1021243
06:00+8nnw376657 0.0 1022219
09:00+13nnw5836100 0.0 1022922
12:00+13nw6737100 0.0 1021840
15:00+10wnw3573100 0.5 1021415
18:00+11nnw357111 0.8 1020423
21:00+10n338396 0.0 102033
14 may, fri
fri1400:00+9nnw3789100 0.0 1022118
03:00+10n38875 0.0 1023216
06:00+8n4994100 0.0 1025287
09:00+12n566269 0.0 1027682
12:00+16n452740 0.0 10271141
15:00+19nnw45211 0.0 10261403
18:00+20nw45230 0.0 10261387
21:00+16w33350 0.0 102623
15 may, sat
sat1500:00+14wsw364129 0.0 102568
03:00+13sw410445 0.0 1024160
06:00+13wsw411475 0.0 1023208
09:00+19wsw7134259 0.0 1022408
12:00+25w893516 0.0 10211221
15:00+28w7929100 0.0 10192157
18:00+28wnw5931100 0.0 10182857
21:00+23w33458 0.0 101739
16 may, sun
sun1600:00+20w455126 0.0 101664
03:00+18wsw49615 0.2 1016126
06:00+17w386554 0.5 1015132
09:00+24w71241100 0.0 1014676
12:00+26wnw91338100 0.0 10131582
15:00+27nw9123113 0.0 10132910
18:00+25nnw993454 0.0 10142361
21:00+20nnw410470 0.0 1016240